SWR122A LSZH-RKSI

Flight info

Callsign SWR122A
Flight time N/A
Altitude 35000
Route DEGES Z2 UMVEG DCT DIMLO DCT INVED DCT TOSVI DCT DINRO DCT UDROS UM859 EVKAM/N0484F370 UM859 KARDE UL851 TBN UM11 REBLO M11 MATAL T916 LEYLA N161 GASBI/K0896F370 N161 DERAD/K0902F390 N161 SARIN/K0898S1190 A368 FKG W188 LIKMI W270 DKO W69 EGILO/K0895S1250 W69 HUR B339 LADIX W34 VAPGU W100 MUDOT DCT UNSEK A326 DONVO G597 AGAVO/N0478F410 Y644 REBIT REBIT1Y
Aircraft A359/H-SDE2E3GHIJ3J4J5LM1ORWXY/LB1D1

Departure

Time 2026-05-01 09:32
Airport Zürich Airport (LSZH)

Arrival

Time N/A
Airport Incheon International Airport (RKSI)
Time Latitude Longitude Altitude Speed Heading
2026-05-01 09:10 47.46061 8.55337 1403 ft 0 kts
2026-05-01 09:20 47.46031 8.55335 1411 ft 4 kts 354°
2026-05-01 09:20 47.45982 8.55361 1413 ft 6 kts 308°
2026-05-01 09:21 47.45974 8.55381 1411 ft 10 kts 276°
2026-05-01 09:24 47.45974 8.55380 1404 ft 1 kts 276°
2026-05-01 09:24 47.45977 8.55343 1406 ft 6 kts 275°
2026-05-01 09:24 47.45990 8.55132 1409 ft 16 kts 275°
2026-05-01 09:25 47.46124 8.54868 1405 ft 19 kts 335°
2026-05-01 09:25 47.46390 8.54685 1403 ft 22 kts 335°
2026-05-01 09:26 47.46526 8.54592 1399 ft 21 kts 335°
2026-05-01 09:26 47.46801 8.54413 1386 ft 23 kts 339°
2026-05-01 09:26 47.46944 8.54320 1388 ft 22 kts 335°
2026-05-01 09:27 47.47199 8.54142 1402 ft 19 kts 335°
2026-05-01 09:27 47.47317 8.54062 1396 ft 18 kts 335°
2026-05-01 09:27 47.47425 8.53988 1403 ft 16 kts 335°
2026-05-01 09:28 47.47521 8.53923 1409 ft 14 kts 335°
2026-05-01 09:28 47.47594 8.53848 1411 ft 12 kts 309°
2026-05-01 09:28 47.47604 8.53746 1413 ft 10 kts 257°
2026-05-01 09:28 47.47579 8.53663 1411 ft 8 kts 245°
2026-05-01 09:29 47.47530 8.53621 1414 ft 0 kts 153°
2026-05-01 09:31 47.47399 8.53714 1406 ft 53 kts 155°
2026-05-01 09:31 47.45908 8.54740 1406 ft 176 kts 155°
2026-05-01 09:32 47.44755 8.55533 1988 ft 180 kts 154°
2026-05-01 09:32 47.42858 8.57563 3578 ft 167 kts 116°
2026-05-01 09:32 47.42748 8.59274 3853 ft 176 kts 75°
2026-05-01 09:33 47.43477 8.60723 4056 ft 181 kts 32°
2026-05-01 09:33 47.44525 8.61779 4328 ft 185 kts 44°
2026-05-01 09:33 47.45690 8.65175 4873 ft 197 kts 75°
2026-05-01 09:34 47.46003 8.67217 5092 ft 210 kts 81°
2026-05-01 09:34 47.46161 8.69422 5328 ft 222 kts 86°
2026-05-01 09:34 47.46449 8.74303 5708 ft 255 kts 86°
2026-05-01 09:35 47.46565 8.76998 5955 ft 270 kts 88°
2026-05-01 09:35 47.46642 8.82620 7173 ft 267 kts 96°
2026-05-01 09:35 47.46341 8.85327 7721 ft 269 kts 103°
2026-05-01 09:36 47.45926 8.88041 8175 ft 273 kts 103°
2026-05-01 09:36 47.45507 8.90787 8715 ft 275 kts 102°
2026-05-01 09:36 47.45099 8.93563 9258 ft 278 kts 102°
2026-05-01 09:36 47.44694 8.96364 9838 ft 279 kts 102°
2026-05-01 09:37 47.44291 8.99167 10407 ft 279 kts 101°
2026-05-01 09:37 47.43461 9.04967 10913 ft 303 kts 101°
2026-05-01 09:37 47.43012 9.08074 11125 ft 315 kts 101°
2026-05-01 09:38 47.42060 9.14649 11557 ft 339 kts 101°
2026-05-01 09:38 47.41582 9.18121 11784 ft 349 kts 98°
2026-05-01 09:38 47.41510 9.21745 11991 ft 358 kts 85°
2026-05-01 09:39 47.42388 9.29163 12502 ft 373 kts 77°
2026-05-01 09:39 47.43011 9.32905 12907 ft 376 kts 76°
2026-05-01 09:39 47.43651 9.36666 13331 ft 379 kts 76°
2026-05-01 09:40 47.44281 9.40455 13771 ft 381 kts 76°
2026-05-01 09:40 47.45490 9.48126 14549 ft 385 kts 77°
2026-05-01 09:40 47.46077 9.52003 14906 ft 387 kts 77°
2026-05-01 09:41 47.46660 9.55897 15281 ft 389 kts 77°
2026-05-01 09:41 47.47049 9.63887 16039 ft 393 kts 90°
2026-05-01 09:41 47.46925 9.67924 16450 ft 394 kts 92°
2026-05-01 09:42 47.46724 9.71969 16802 ft 396 kts 93°
2026-05-01 09:42 47.46484 9.76036 17147 ft 398 kts 94°
2026-05-01 09:42 47.45983 9.84184 17856 ft 402 kts 94°
2026-05-01 09:43 47.45497 9.92456 18536 ft 406 kts 93°
2026-05-01 09:43 47.45257 9.96643 18815 ft 408 kts 93°
2026-05-01 09:43 47.45018 10.00835 19098 ft 410 kts 93°
2026-05-01 09:44 47.44534 10.09266 19777 ft 412 kts 93°
2026-05-01 09:44 47.44289 10.13485 20049 ft 414 kts 93°
2026-05-01 09:44 47.43983 10.17675 20374 ft 416 kts 96°
2026-05-01 09:45 47.43511 10.21909 20629 ft 420 kts 97°
2026-05-01 09:45 47.42416 10.30444 21180 ft 425 kts 99°
2026-05-01 09:45 47.41831 10.34730 21530 ft 427 kts 99°
2026-05-01 09:46 47.41236 10.39048 21825 ft 429 kts 99°
2026-05-01 09:46 47.40642 10.43375 22108 ft 431 kts 99°
2026-05-01 09:46 47.40043 10.47729 22518 ft 431 kts 98°
2026-05-01 09:46 47.39449 10.52067 22884 ft 433 kts 98°
2026-05-01 09:47 47.38850 10.56431 23172 ft 435 kts 98°
2026-05-01 09:47 47.38243 10.60824 23408 ft 438 kts 98°
2026-05-01 09:47 47.37629 10.65243 23674 ft 441 kts 98°
2026-05-01 09:47 47.37011 10.69678 23993 ft 442 kts 98°
2026-05-01 09:48 47.36399 10.74073 24238 ft 444 kts 98°
2026-05-01 09:48 47.35774 10.78546 24442 ft 447 kts 98°
2026-05-01 09:48 47.35145 10.83038 24719 ft 448 kts 98°
2026-05-01 09:48 47.34512 10.87536 25059 ft 448 kts 98°
2026-05-01 09:49 47.33876 10.92032 25359 ft 449 kts 98°
2026-05-01 09:49 47.33237 10.96547 25596 ft 451 kts 98°
2026-05-01 09:49 47.32592 11.01083 25870 ft 453 kts 98°
2026-05-01 09:49 47.31945 11.05637 26103 ft 454 kts 98°
2026-05-01 09:50 47.31293 11.10204 26357 ft 456 kts 98°
2026-05-01 09:50 47.30637 11.14781 26639 ft 457 kts 98°
2026-05-01 09:50 47.29979 11.19383 26836 ft 460 kts 98°
2026-05-01 09:50 47.29317 11.24002 27075 ft 461 kts 98°
2026-05-01 09:51 47.28651 11.28621 27374 ft 461 kts 98°
2026-05-01 09:51 47.27978 11.33250 27626 ft 464 kts 98°
2026-05-01 09:51 47.27300 11.37911 27866 ft 467 kts 98°
2026-05-01 09:51 47.26616 11.42593 28162 ft 467 kts 98°
2026-05-01 09:52 47.25939 11.47213 28419 ft 469 kts 98°
2026-05-01 09:52 47.25250 11.51915 28655 ft 471 kts 98°
2026-05-01 09:52 47.24639 11.56653 28898 ft 471 kts 95°
2026-05-01 09:52 47.24122 11.61423 29122 ft 473 kts 94°
2026-05-01 09:53 47.23640 11.66214 29362 ft 474 kts 94°
2026-05-01 09:53 47.23159 11.71013 29677 ft 474 kts 94°
2026-05-01 09:53 47.22667 11.75797 29990 ft 473 kts 94°
2026-05-01 09:53 47.22163 11.80582 30298 ft 473 kts 94°
2026-05-01 09:54 47.21648 11.85356 30567 ft 473 kts 94°
2026-05-01 09:54 47.21123 11.90124 30890 ft 471 kts 94°
2026-05-01 09:54 47.20620 11.94872 31230 ft 469 kts 94°
2026-05-01 09:54 47.20154 11.99612 31525 ft 468 kts 93°
2026-05-01 09:55 47.19706 12.04342 31786 ft 467 kts 93°
2026-05-01 09:55 47.19261 12.09067 32045 ft 466 kts 93°
2026-05-01 09:55 47.18812 12.13788 32302 ft 466 kts 93°
2026-05-01 09:55 47.18363 12.18439 32642 ft 464 kts 93°
2026-05-01 09:56 47.17905 12.23126 32937 ft 463 kts 93°
2026-05-01 09:56 47.17442 12.27817 33225 ft 462 kts 93°
2026-05-01 09:56 47.16977 12.32481 33524 ft 461 kts 93°
2026-05-01 09:56 47.16508 12.37138 33763 ft 460 kts 93°
2026-05-01 09:57 47.16040 12.41789 33994 ft 460 kts 93°
2026-05-01 09:57 47.15570 12.46432 34349 ft 458 kts 92°
2026-05-01 09:57 47.15103 12.51030 34673 ft 454 kts 93°
2026-05-01 09:57 47.14636 12.55616 34812 ft 455 kts 93°
2026-05-01 09:58 47.14166 12.60222 34956 ft 456 kts 93°
2026-05-01 09:58 47.13694 12.64832 35124 ft 456 kts 93°
2026-05-01 09:58 47.13220 12.69439 35297 ft 456 kts 93°
2026-05-01 09:58 47.12750 12.73995 35336 ft 459 kts 93°
2026-05-01 09:59 47.11783 12.83323 35335 ft 464 kts 93°
2026-05-01 09:59 47.10802 12.92662 35344 ft 461 kts 93°
2026-05-01 10:00 47.09814 13.01962 35337 ft 461 kts 93°
2026-05-01 10:00 47.08821 13.11261 35342 ft 460 kts 93°
2026-05-01 10:01 47.07829 13.20502 35346 ft 461 kts 93°
2026-05-01 10:01 47.06825 13.29787 35360 ft 461 kts 93°
2026-05-01 10:02 47.05814 13.39054 35345 ft 459 kts 94°
2026-05-01 10:02 47.04799 13.48298 35352 ft 459 kts 94°
2026-05-01 10:03 47.03774 13.57557 35347 ft 459 kts 94°
2026-05-01 10:03 47.02742 13.66807 35387 ft 459 kts 94°
2026-05-01 10:04 47.01701 13.76038 35369 ft 458 kts 94°
2026-05-01 10:04 47.00656 13.85257 35367 ft 458 kts 94°
2026-05-01 10:05 46.99611 13.94413 35371 ft 458 kts 94°
2026-05-01 10:05 46.98552 14.03616 35375 ft 458 kts 94°
2026-05-01 10:06 46.97483 14.12834 35383 ft 457 kts 94°
2026-05-01 10:06 46.96411 14.22010 35387 ft 456 kts 94°
2026-05-01 10:07 46.95334 14.31182 35392 ft 457 kts 94°
2026-05-01 10:07 46.94249 14.40345 35390 ft 457 kts 94°
2026-05-01 10:08 46.92607 14.54063 35375 ft 455 kts 94°
2026-05-01 10:09 46.91510 14.63181 35395 ft 455 kts 94°
2026-05-01 10:09 46.90406 14.72289 35381 ft 455 kts 94°
2026-05-01 10:10 46.89301 14.81316 35387 ft 454 kts 94°
2026-05-01 10:10 46.87620 14.94936 35386 ft 453 kts 94°
2026-05-01 10:11 46.86683 15.02475 35390 ft 452 kts 94°
2026-05-01 10:11 46.85555 15.11492 35391 ft 451 kts 94°
2026-05-01 10:12 46.84420 15.20512 35393 ft 451 kts 94°
2026-05-01 10:13 46.82707 15.34005 35395 ft 448 kts 94°
2026-05-01 10:13 46.81563 15.42936 35394 ft 447 kts 94°
2026-05-01 10:14 46.79841 15.56307 35394 ft 447 kts 94°
2026-05-01 10:14 46.78688 15.65174 35420 ft 447 kts 94°
2026-05-01 10:15 46.77524 15.74060 35388 ft 445 kts 94°
2026-05-01 10:15 46.76355 15.82936 35391 ft 445 kts 94°
2026-05-01 10:16 46.75179 15.91814 35389 ft 446 kts 94°
2026-05-01 10:17 46.73401 16.05122 35387 ft 446 kts 95°
2026-05-01 10:17 46.71608 16.18423 35387 ft 446 kts 95°
2026-05-01 10:18 46.69801 16.31704 35387 ft 445 kts 95°
2026-05-01 10:19 46.68596 16.40497 35382 ft 446 kts 95°
2026-05-01 10:19 46.67454 16.49360 35388 ft 443 kts 93°
2026-05-01 10:20 46.65989 16.62635 35385 ft 443 kts 93°
2026-05-01 10:20 46.64990 16.71492 35385 ft 443 kts 93°
2026-05-01 10:21 46.63450 16.84693 35395 ft 443 kts 94°
2026-05-01 10:22 46.61883 16.97939 35397 ft 443 kts 94°
2026-05-01 10:23 46.60303 17.11177 35400 ft 443 kts 94°
2026-05-01 10:23 46.58706 17.24417 35412 ft 443 kts 94°
2026-05-01 10:24 46.56556 17.42046 35390 ft 444 kts 94°
2026-05-01 10:25 46.54367 17.59737 35380 ft 444 kts 94°
2026-05-01 10:26 46.53263 17.68575 35380 ft 445 kts 94°
2026-05-01 10:27 46.51030 17.86288 35370 ft 446 kts 94°
2026-05-01 10:28 46.49336 17.99564 35378 ft 446 kts 95°
2026-05-01 10:28 46.47621 18.12888 35373 ft 449 kts 95°
2026-05-01 10:29 46.45885 18.26228 35371 ft 449 kts 95°
2026-05-01 10:30 46.43550 18.43979 35378 ft 450 kts 95°
2026-05-01 10:31 46.41175 18.61820 35371 ft 451 kts 95°
2026-05-01 10:32 46.39373 18.75196 35364 ft 451 kts 95°
2026-05-01 10:33 46.36943 18.93069 35367 ft 455 kts 96°
2026-05-01 10:34 46.35085 19.06561 35365 ft 455 kts 96°
2026-05-01 10:34 46.33838 19.15548 35359 ft 455 kts 96°
2026-05-01 10:35 46.31950 19.29079 35360 ft 459 kts 96°
2026-05-01 10:35 46.30685 19.38061 35357 ft 459 kts 96°
2026-05-01 10:36 46.28760 19.51633 35355 ft 459 kts 96°
2026-05-01 10:37 46.27469 19.60681 35359 ft 461 kts 97°
2026-05-01 10:37 46.25495 19.74381 35352 ft 465 kts 97°
2026-05-01 10:38 46.24168 19.83530 35352 ft 465 kts 97°
2026-05-01 10:38 46.22835 19.92666 35346 ft 465 kts 97°
2026-05-01 10:39 46.21500 20.01761 35344 ft 465 kts 97°
2026-05-01 10:39 46.20152 20.10889 35344 ft 465 kts 97°
2026-05-01 10:40 46.18795 20.20027 35341 ft 465 kts 97°
2026-05-01 10:40 46.17441 20.29094 35341 ft 465 kts 97°
2026-05-01 10:41 46.16040 20.38216 35339 ft 466 kts 99°
2026-05-01 10:42 46.12774 20.51509 35336 ft 470 kts 105°
2026-05-01 10:42 46.10397 20.60290 35336 ft 470 kts 105°
2026-05-01 10:43 46.08008 20.69061 35352 ft 470 kts 106°
2026-05-01 10:43 46.05616 20.77883 35336 ft 475 kts 106°
2026-05-01 10:44 46.03228 20.86676 35335 ft 476 kts 106°
2026-05-01 10:44 46.00804 20.95536 35334 ft 476 kts 106°
2026-05-01 10:45 45.98372 21.04396 35350 ft 476 kts 107°
2026-05-01 10:45 45.95935 21.13256 35322 ft 478 kts 107°
2026-05-01 10:46 45.93481 21.22148 35319 ft 478 kts 107°
2026-05-01 10:46 45.91018 21.31037 35319 ft 478 kts 107°
2026-05-01 10:47 45.88552 21.39904 35326 ft 479 kts 107°
2026-05-01 10:47 45.86069 21.48800 35320 ft 481 kts 107°
2026-05-01 10:48 45.83589 21.57652 35320 ft 481 kts 108°
2026-05-01 10:48 45.81084 21.66560 35316 ft 482 kts 108°
2026-05-01 10:49 45.78574 21.75457 35321 ft 482 kts 108°
2026-05-01 10:49 45.76045 21.84387 35315 ft 485 kts 108°
2026-05-01 10:50 45.73504 21.93324 35314 ft 485 kts 108°
2026-05-01 10:50 45.70954 22.02259 35311 ft 485 kts 108°
2026-05-01 10:51 45.68394 22.11197 35303 ft 486 kts 108°
2026-05-01 10:51 45.65820 22.20153 35311 ft 487 kts 108°
2026-05-01 10:52 45.63238 22.29108 35307 ft 487 kts 109°
2026-05-01 10:52 45.60646 22.38058 35291 ft 487 kts 109°
2026-05-01 10:53 45.58061 22.46960 35294 ft 489 kts 109°
2026-05-01 10:53 45.55439 22.55954 35295 ft 491 kts 109°
2026-05-01 10:54 45.52808 22.64939 35294 ft 491 kts 109°
2026-05-01 10:54 45.50168 22.73923 35291 ft 491 kts 109°
2026-05-01 10:55 45.47516 22.82925 35289 ft 493 kts 110°
2026-05-01 10:55 45.44853 22.91928 35286 ft 494 kts 110°
2026-05-01 10:56 45.42177 23.00943 35282 ft 494 kts 110°
2026-05-01 10:56 45.39489 23.09962 35299 ft 495 kts 110°
2026-05-01 10:57 45.37243 23.17477 35281 ft 496 kts 110°
2026-05-01 10:57 45.34093 23.27976 35283 ft 497 kts 110°
2026-05-01 10:58 45.31372 23.37011 35284 ft 497 kts 110°
2026-05-01 10:58 45.29101 23.44526 35283 ft 497 kts 110°
2026-05-01 10:59 45.26365 23.53548 35283 ft 497 kts 111°
2026-05-01 10:59 45.23619 23.62571 35284 ft 498 kts 111°
2026-05-01 11:00 45.20870 23.71574 35284 ft 497 kts 111°
2026-05-01 11:00 45.18129 23.80537 35292 ft 499 kts 111°
2026-05-01 11:01 45.15355 23.89559 35291 ft 500 kts 111°
2026-05-01 11:01 45.12566 23.98588 35290 ft 500 kts 111°
2026-05-01 11:02 45.09775 24.07597 35292 ft 500 kts 111°
2026-05-01 11:02 45.06975 24.16612 35292 ft 501 kts 112°
2026-05-01 11:03 45.04155 24.25652 35289 ft 502 kts 112°
2026-05-01 11:03 45.01351 24.34612 35295 ft 502 kts 112°
2026-05-01 11:04 44.98520 24.43626 35303 ft 502 kts 112°
2026-05-01 11:04 44.95678 24.52646 35295 ft 503 kts 112°
2026-05-01 11:05 44.92824 24.61668 35300 ft 503 kts 112°
2026-05-01 11:05 44.89963 24.70685 35297 ft 503 kts 112°
2026-05-01 11:06 44.87096 24.79690 35301 ft 503 kts 113°
2026-05-01 11:06 44.84220 24.88690 35306 ft 503 kts 113°
2026-05-01 11:07 44.79893 25.02171 35306 ft 503 kts 113°
2026-05-01 11:07 44.77018 25.11095 35299 ft 504 kts 113°
2026-05-01 11:08 44.74152 25.20111 35316 ft 504 kts 111°
2026-05-01 11:09 44.70482 25.33975 35318 ft 504 kts 109°
2026-05-01 11:09 44.68067 25.43222 35307 ft 505 kts 109°
2026-05-01 11:10 44.64328 25.57067 35302 ft 505 kts 110°
2026-05-01 11:10 44.61805 25.66286 35322 ft 506 kts 110°
2026-05-01 11:11 44.59287 25.75456 35310 ft 506 kts 110°
2026-05-01 11:11 44.56744 25.84690 35314 ft 507 kts 110°
2026-05-01 11:12 44.54194 25.93917 35317 ft 507 kts 110°
2026-05-01 11:12 44.51634 26.03144 35319 ft 507 kts 110°
2026-05-01 11:13 44.49072 26.12360 35319 ft 508 kts 111°
2026-05-01 11:13 44.46492 26.21587 35319 ft 508 kts 111°
2026-05-01 11:14 44.43904 26.30803 35300 ft 508 kts 111°
2026-05-01 11:14 44.41313 26.40005 35302 ft 508 kts 111°
2026-05-01 11:15 44.38729 26.49159 35305 ft 509 kts 111°
2026-05-01 11:15 44.36114 26.58372 35301 ft 509 kts 111°
2026-05-01 11:16 44.33494 26.67567 35298 ft 509 kts 111°
2026-05-01 11:16 44.30893 26.76663 35338 ft 509 kts 111°
2026-05-01 11:17 44.28257 26.85850 35423 ft 509 kts 111°
2026-05-01 11:17 44.25630 26.94974 35516 ft 510 kts 111°
2026-05-01 11:18 44.22978 27.04150 35611 ft 510 kts 112°
2026-05-01 11:18 44.20322 27.13332 35702 ft 510 kts 112°
2026-05-01 11:19 44.17654 27.22498 35789 ft 511 kts 112°
2026-05-01 11:19 44.14968 27.31673 35889 ft 511 kts 112°
2026-05-01 11:20 44.12281 27.40837 35985 ft 512 kts 112°
2026-05-01 11:20 44.09580 27.50015 36080 ft 513 kts 112°
2026-05-01 11:21 44.06869 27.59189 36176 ft 513 kts 112°
2026-05-01 11:21 44.04152 27.68349 36276 ft 513 kts 113°
2026-05-01 11:22 44.01448 27.77456 36367 ft 513 kts 113°
2026-05-01 11:22 43.98708 27.86627 36465 ft 514 kts 113°
2026-05-01 11:23 43.95963 27.95777 36565 ft 514 kts 113°
2026-05-01 11:23 43.93207 28.04939 36647 ft 514 kts 113°
2026-05-01 11:24 43.90442 28.14098 36755 ft 515 kts 114°
2026-05-01 11:25 43.86294 28.27781 36899 ft 515 kts 114°
2026-05-01 11:25 43.82108 28.41516 37044 ft 516 kts 114°
2026-05-01 11:26 43.77915 28.55198 37198 ft 516 kts 114°
2026-05-01 11:27 43.75105 28.64331 37262 ft 516 kts 114°
2026-05-01 11:27 43.72281 28.73474 37268 ft 517 kts 114°
2026-05-01 11:28 43.69071 28.82355 37267 ft 515 kts 126°
2026-05-01 11:28 43.65050 28.90440 37256 ft 514 kts 127°
2026-05-01 11:29 43.58744 29.02416 37259 ft 513 kts 128°
2026-05-01 11:30 43.52422 29.14350 37263 ft 513 kts 128°
2026-05-01 11:30 43.48214 29.22309 37255 ft 513 kts 128°
2026-05-01 11:31 43.44004 29.30260 37255 ft 514 kts 128°
2026-05-01 11:31 43.39791 29.38195 37252 ft 514 kts 129°
2026-05-01 11:32 43.35601 29.46067 37242 ft 514 kts 129°
2026-05-01 11:32 43.31369 29.53994 37244 ft 514 kts 129°
2026-05-01 11:33 43.27134 29.61904 37243 ft 514 kts 129°
2026-05-01 11:33 43.22893 29.69805 37241 ft 514 kts 129°
2026-05-01 11:34 43.18646 29.77697 37235 ft 514 kts 129°
2026-05-01 11:34 43.14396 29.85572 37236 ft 514 kts 129°
2026-05-01 11:35 43.10172 29.93380 37231 ft 514 kts 129°
2026-05-01 11:35 43.05916 30.01226 37229 ft 513 kts 130°
2026-05-01 11:36 43.01641 30.09085 37230 ft 514 kts 130°
2026-05-01 11:36 42.97369 30.16919 37222 ft 514 kts 130°
2026-05-01 11:37 42.93125 30.24679 37227 ft 513 kts 130°
2026-05-01 11:37 42.88843 30.32492 37210 ft 513 kts 130°
2026-05-01 11:38 42.84564 30.40275 37221 ft 513 kts 130°
2026-05-01 11:38 42.80274 30.48060 37211 ft 513 kts 131°
2026-05-01 11:39 42.76108 30.55954 37206 ft 516 kts 124°
2026-05-01 11:39 42.73433 30.65076 37209 ft 525 kts 104°
2026-05-01 11:40 42.72242 30.74753 37193 ft 528 kts 101°
2026-05-01 11:40 42.71283 30.84683 37198 ft 530 kts 100°
2026-05-01 11:41 42.70320 30.94618 37200 ft 530 kts 101°
2026-05-01 11:41 42.69309 31.04553 37196 ft 530 kts 101°
2026-05-01 11:42 42.68272 31.14479 37187 ft 530 kts 101°
2026-05-01 11:42 42.67228 31.24348 37192 ft 531 kts 101°
2026-05-01 11:43 42.66169 31.34283 37186 ft 531 kts 101°
2026-05-01 11:43 42.65104 31.44211 37182 ft 531 kts 102°
2026-05-01 11:44 42.63491 31.59094 37181 ft 531 kts 102°
2026-05-01 11:44 42.62403 31.69029 37175 ft 531 kts 102°
2026-05-01 11:45 42.61493 31.77275 37174 ft 531 kts 102°
2026-05-01 11:45 42.60392 31.87184 37165 ft 531 kts 103°
2026-05-01 11:46 42.59099 31.98708 37168 ft 531 kts 103°
2026-05-01 11:46 42.58173 32.07010 37171 ft 531 kts 102°
2026-05-01 11:47 42.57060 32.16912 37175 ft 531 kts 103°
2026-05-01 11:47 42.55925 32.26752 37164 ft 530 kts 103°
2026-05-01 11:48 42.54779 32.36620 37166 ft 530 kts 103°
2026-05-01 11:48 42.53625 32.46502 37154 ft 530 kts 103°
2026-05-01 11:49 42.52464 32.56381 37137 ft 530 kts 103°
2026-05-01 11:49 42.51295 32.66253 37154 ft 530 kts 104°
2026-05-01 11:50 42.50119 32.76118 37150 ft 530 kts 104°
2026-05-01 11:50 42.48932 32.85976 37145 ft 530 kts 104°
2026-05-01 11:51 42.47746 32.95777 37153 ft 530 kts 104°
2026-05-01 11:51 42.46543 33.05645 37143 ft 530 kts 104°
2026-05-01 11:52 42.45332 33.15499 37144 ft 530 kts 104°
2026-05-01 11:52 42.44110 33.25343 37144 ft 530 kts 104°
2026-05-01 11:53 42.42881 33.35188 37141 ft 529 kts 104°
2026-05-01 11:53 42.41658 33.44932 37149 ft 529 kts 104°
2026-05-01 11:54 42.40414 33.54760 37141 ft 529 kts 104°
2026-05-01 11:54 42.39161 33.64582 37118 ft 529 kts 104°
2026-05-01 11:55 42.37900 33.74403 37136 ft 530 kts 104°
2026-05-01 11:55 42.36631 33.84217 37135 ft 530 kts 104°
2026-05-01 11:56 42.35355 33.94035 37129 ft 530 kts 104°
2026-05-01 11:56 42.34073 34.03855 37126 ft 529 kts 104°
2026-05-01 11:57 42.32786 34.13649 37124 ft 529 kts 104°
2026-05-01 11:57 42.31497 34.23380 37125 ft 529 kts 104°
2026-05-01 11:58 42.30195 34.33148 37119 ft 529 kts 105°
2026-05-01 11:59 42.28232 34.47796 37118 ft 526 kts 105°
2026-05-01 11:59 42.26919 34.57445 37109 ft 525 kts 105°
2026-05-01 12:00 42.24922 34.71999 37096 ft 526 kts 105°
2026-05-01 12:01 42.22915 34.86540 37105 ft 525 kts 105°
2026-05-01 12:01 42.21556 34.96215 37096 ft 524 kts 105°
2026-05-01 12:02 42.20189 35.05891 37076 ft 525 kts 105°
2026-05-01 12:02 42.18828 35.15550 37105 ft 523 kts 105°
2026-05-01 12:03 42.17472 35.25106 37092 ft 522 kts 105°
2026-05-01 12:03 42.16096 35.34713 37082 ft 522 kts 105°
2026-05-01 12:04 42.14710 35.44334 37079 ft 522 kts 105°
2026-05-01 12:04 42.13323 35.53925 37071 ft 522 kts 106°
2026-05-01 12:05 42.11922 35.63527 37074 ft 522 kts 106°
2026-05-01 12:05 42.09808 35.77926 37066 ft 522 kts 106°
2026-05-01 12:06 42.08391 35.87505 37069 ft 521 kts 106°
2026-05-01 12:06 42.06977 35.97011 37065 ft 521 kts 106°
2026-05-01 12:07 42.05546 36.06578 37054 ft 521 kts 106°
2026-05-01 12:07 42.04107 36.16135 37053 ft 521 kts 106°
2026-05-01 12:08 42.02660 36.25688 37053 ft 521 kts 106°
2026-05-01 12:08 42.01204 36.35247 37054 ft 521 kts 106°
2026-05-01 12:09 41.99741 36.44796 37048 ft 521 kts 106°
2026-05-01 12:09 41.98279 36.54284 37043 ft 521 kts 106°
2026-05-01 12:10 41.96058 36.68588 37043 ft 521 kts 107°
2026-05-01 12:11 41.93819 36.82886 37030 ft 521 kts 106°
2026-05-01 12:11 41.92320 36.92390 37037 ft 519 kts 107°
2026-05-01 12:12 41.90791 37.01883 37026 ft 518 kts 109°
2026-05-01 12:12 41.88406 37.10895 37031 ft 511 kts 117°
2026-05-01 12:13 41.85696 37.19641 37026 ft 510 kts 118°
2026-05-01 12:13 41.82907 37.28397 37044 ft 510 kts 118°
2026-05-01 12:14 41.80118 37.37150 37018 ft 510 kts 118°
2026-05-01 12:14 41.77334 37.45906 37021 ft 510 kts 118°
2026-05-01 12:15 41.74574 37.54577 37023 ft 509 kts 118°
2026-05-01 12:15 41.71791 37.63290 37021 ft 509 kts 118°
2026-05-01 12:16 41.69005 37.72002 36996 ft 509 kts 118°
2026-05-01 12:16 41.66212 37.80695 37020 ft 507 kts 118°
2026-05-01 12:17 41.63415 37.89367 37017 ft 507 kts 118°
2026-05-01 12:17 41.60618 37.98015 37017 ft 507 kts 118°
2026-05-01 12:18 41.57817 38.06650 37018 ft 506 kts 118°
2026-05-01 12:18 41.55031 38.15213 37012 ft 505 kts 118°
2026-05-01 12:19 41.52225 38.23809 37012 ft 505 kts 118°
2026-05-01 12:19 41.49409 38.32408 37011 ft 505 kts 118°
2026-05-01 12:20 41.46593 38.40984 37012 ft 505 kts 118°
2026-05-01 12:20 41.43770 38.49551 37013 ft 505 kts 118°
2026-05-01 12:21 41.40935 38.58126 37001 ft 506 kts 118°
2026-05-01 12:21 41.38087 38.66716 37013 ft 507 kts 118°
2026-05-01 12:22 41.35226 38.75320 37012 ft 508 kts 118°
2026-05-01 12:22 41.32373 38.83924 37012 ft 508 kts 118°
2026-05-01 12:23 41.29576 38.92488 37012 ft 508 kts 118°
2026-05-01 12:23 41.26762 39.01098 37012 ft 508 kts 118°
2026-05-01 12:24 41.23936 39.09699 37013 ft 508 kts 118°
2026-05-01 12:24 41.21095 39.18307 37011 ft 508 kts 118°
2026-05-01 12:25 41.16669 39.31064 37016 ft 506 kts 120°
2026-05-01 12:26 41.13673 39.39526 37005 ft 506 kts 120°
2026-05-01 12:26 41.09216 39.52170 36997 ft 506 kts 119°
2026-05-01 12:27 41.04739 39.64864 36995 ft 506 kts 120°
2026-05-01 12:28 41.00461 39.77698 36994 ft 512 kts 110°
2026-05-01 12:28 40.99333 39.87014 36991 ft 519 kts 96°
2026-05-01 12:29 40.99147 39.91816 36993 ft 520 kts 95°
2026-05-01 12:29 40.98853 40.06205 36995 ft 521 kts 94°
2026-05-01 12:30 40.98533 40.20524 37001 ft 520 kts 95°
2026-05-01 12:31 40.98283 40.30086 36995 ft 520 kts 95°
2026-05-01 12:31 40.98011 40.39652 36998 ft 520 kts 95°
2026-05-01 12:32 40.97733 40.49213 36998 ft 519 kts 95°
2026-05-01 12:32 40.97309 40.63452 37002 ft 519 kts 95°
2026-05-01 12:33 40.97064 40.71387 37007 ft 518 kts 95°
2026-05-01 12:33 40.96763 40.80921 37016 ft 518 kts 95°
2026-05-01 12:34 40.96458 40.90433 37010 ft 519 kts 95°
2026-05-01 12:34 40.96149 40.99956 37014 ft 518 kts 95°
2026-05-01 12:35 40.95821 41.09517 37001 ft 518 kts 95°
2026-05-01 12:35 40.95488 41.19048 36985 ft 518 kts 95°
2026-05-01 12:36 40.95147 41.28524 36975 ft 519 kts 95°
2026-05-01 12:36 40.94800 41.38081 36991 ft 520 kts 96°
2026-05-01 12:37 40.94446 41.47624 36972 ft 519 kts 96°
2026-05-01 12:37 40.94084 41.57185 36972 ft 519 kts 96°
2026-05-01 12:38 40.93722 41.66724 36966 ft 518 kts 96°
2026-05-01 12:38 40.93339 41.76246 36962 ft 518 kts 96°
2026-05-01 12:39 40.92951 41.85694 36960 ft 517 kts 96°
2026-05-01 12:39 40.92555 41.95184 36973 ft 517 kts 96°
2026-05-01 12:40 40.92157 42.04668 36966 ft 517 kts 96°
2026-05-01 12:40 40.91748 42.14156 36985 ft 517 kts 96°
2026-05-01 12:41 40.91332 42.23634 36990 ft 516 kts 96°
2026-05-01 12:41 40.90908 42.33120 37011 ft 517 kts 96°
2026-05-01 12:42 40.90477 42.42598 37014 ft 516 kts 96°
2026-05-01 12:42 40.90040 42.52009 37001 ft 516 kts 96°
2026-05-01 12:43 40.89591 42.61510 37024 ft 517 kts 96°
2026-05-01 12:43 40.89137 42.70986 37023 ft 517 kts 96°
2026-05-01 12:44 40.88674 42.80472 37023 ft 517 kts 96°
2026-05-01 12:45 40.87729 42.99361 37023 ft 515 kts 96°
2026-05-01 12:45 40.87244 43.08818 37036 ft 515 kts 96°
2026-05-01 12:46 40.86752 43.18265 37033 ft 515 kts 96°
2026-05-01 12:46 40.86253 43.27695 37042 ft 515 kts 96°
2026-05-01 12:47 40.85746 43.37126 37040 ft 515 kts 96°
2026-05-01 12:47 40.85231 43.46573 37048 ft 515 kts 97°
2026-05-01 12:48 40.84708 43.56005 37048 ft 515 kts 97°
2026-05-01 12:48 40.84178 43.65429 37047 ft 515 kts 97°
2026-05-01 12:49 40.83708 43.74860 37034 ft 515 kts 95°
2026-05-01 12:49 40.83432 43.84283 37056 ft 517 kts 94°
2026-05-01 12:50 40.83168 43.93786 37063 ft 517 kts 95°
2026-05-01 12:50 40.82861 44.03285 37059 ft 518 kts 95°
2026-05-01 12:51 40.82529 44.12794 37057 ft 518 kts 95°
2026-05-01 12:52 40.82017 44.27053 37047 ft 518 kts 95°
2026-05-01 12:52 40.81488 44.41246 37057 ft 518 kts 95°
2026-05-01 12:53 40.80947 44.55504 37053 ft 518 kts 96°
2026-05-01 12:54 40.80573 44.65005 37030 ft 517 kts 95°
2026-05-01 12:54 40.79996 44.79192 37035 ft 518 kts 96°
2026-05-01 12:55 40.79402 44.93447 37054 ft 520 kts 96°
2026-05-01 12:56 40.78997 45.02961 37039 ft 519 kts 96°
2026-05-01 12:56 40.78584 45.12496 37045 ft 520 kts 96°
2026-05-01 12:57 40.78162 45.22029 37038 ft 519 kts 96°
2026-05-01 12:57 40.77514 45.36303 37042 ft 519 kts 96°
2026-05-01 12:58 40.77073 45.45821 37044 ft 520 kts 96°
2026-05-01 12:59 40.77848 45.60034 37046 ft 521 kts 84°
2026-05-01 12:59 40.79340 45.74233 37043 ft 520 kts 83°